Terug naar catalogus

QIANFAN-70

ActiefCommunicatiePO
NORAD 62800·PAYLOAD·🇨🇳 China

Gelanceerd Jan 23, 2025 vanaf Taiyuan Satellite Launch Center

Loading…

Volgende Passages (komende 24 uur)

TLE

VersSource: Space-Track

Epoch: Sep 14, 2026, 21:28 UTC

1 62800U 25016R   26257.89483215  .00000055  00000-0  65982-4 0  9996
2 62800  88.9665  74.4271 0013566 256.0671 103.8972 13.51023541 84527

Volg QIANFAN-70 in realtime met AllMySat

Download on the App Store